When you browse on this site, cookies collect data to enhance your experience and personalize the content and advertising you see.
Visit our Privacy Policy to learn more. By continuing to use the site, you agree to this use of cookies and data.
  • In Portugal
  • List of Countries
  • For 7 days
  • Water Temperature
  • Weather Map
  • Weather Widgets
  • user-avatar
    Login

    Hourly Weather Marbella

    Today, 23 August, Friday

    Time Temperature Precipitation Wind Pressure Humidity
    00:00 +23°C° 0 mm 4 mps 756 mmHg 82%
    01:00 +23°C° 0 mm 4 mps 756 mmHg 80%
    02:00 +22°C° 0 mm 3 mps 756 mmHg 78%
    03:00 +22°C° 0 mm 3 mps 756 mmHg 76%
    04:00 +22°C° 0 mm 3 mps 756 mmHg 75%
    05:00 +22°C° 0 mm 3 mps 756 mmHg 73%
    06:00 +22°C° 0 mm 3 mps 756 mmHg 72%
    07:00 +25°C° 0 mm 3 mps 756 mmHg 64%
    08:00 +27°C° 0 mm 3 mps 757 mmHg 56%
    09:00 +29°C° 0 mm 3 mps 757 mmHg 47%
    10:00 +30°C° 0 mm 3 mps 757 mmHg 44%
    11:00 +32°C° 0 mm 4 mps 756 mmHg 40%
    12:00 +33°C° 0 mm 4 mps 756 mmHg 36%
    13:00 +33°C° 0 mm 4 mps 756 mmHg 36%
    14:00 +33°C° 0 mm 4 mps 755 mmHg 36%
    15:00 +33°C° 0 mm 4 mps 755 mmHg 36%
    16:00 +32°C° 0 mm 4 mps 755 mmHg 38%
    17:00 +30°C° 0 mm 3 mps 754 mmHg 40%
    18:00 +29°C° 0 mm 3 mps 754 mmHg 43%
    19:00 +28°C° 0 mm 3 mps 755 mmHg 49%
    20:00 +26°C° 0 mm 3 mps 755 mmHg 54%
    21:00 +25°C° 0 mm 3 mps 756 mmHg 60%
    22:00 +24°C° 0 mm 3 mps 756 mmHg 60%
    23:00 +24°C° 0 mm 3 mps 756 mmHg 59%

    Tomorrow, 24 August, Saturday

    Time Temperature Precipitation Wind Pressure Humidity
    00:00 +24°C° 0 mm 3 mps 756 mmHg 59%
    01:00 +24°C° 0 mm 3 mps 756 mmHg 58%
    02:00 +24°C° 0 mm 3 mps 756 mmHg 57%
    03:00 +24°C° 0 mm 3 mps 756 mmHg 55%
    04:00 +22°C° 0 mm 3 mps 756 mmHg 57%
    05:00 +22°C° 0 mm 3 mps 756 mmHg 59%
    06:00 +22°C° 0 mm 3 mps 756 mmHg 61%
    07:00 +25°C° 0 mm 3 mps 756 mmHg 54%
    08:00 +28°C° 0 mm 3 mps 756 mmHg 48%
    09:00 +30°C° 0 mm 4 mps 756 mmHg 41%
    10:00 +32°C° 0 mm 4 mps 756 mmHg 40%
    11:00 +32°C° 0 mm 4 mps 755 mmHg 40%
    12:00 +33°C° 0 mm 4 mps 755 mmHg 39%
    13:00 +33°C° 0 mm 4 mps 755 mmHg 38%
    14:00 +34°C° 0 mm 4 mps 755 mmHg 37%
    15:00 +34°C° 0 mm 4 mps 754 mmHg 36%
    16:00 +33°C° 0 mm 4 mps 754 mmHg 39%
    17:00 +32°C° 0 mm 4 mps 754 mmHg 42%
    18:00 +30°C° 0 mm 3 mps 754 mmHg 45%
    19:00 +28°C° 0 mm 3 mps 754 mmHg 51%
    20:00 +26°C° 0 mm 3 mps 755 mmHg 57%
    21:00 +24°C° 0 mm 3 mps 756 mmHg 64%
    22:00 +24°C° 0 mm 3 mps 756 mmHg 60%
    23:00 +24°C° 0 mm 2 mps 756 mmHg 57%

    Day after tomorrow, 25 August, Sunday

    Time Temperature Precipitation Wind Pressure Humidity
    00:00 +24°C° 0 mm 2 mps 756 mmHg 54%
    01:00 +24°C° 0 mm 2 mps 756 mmHg 55%
    02:00 +24°C° 0 mm 2 mps 755 mmHg 56%
    03:00 +23°C° 0 mm 2 mps 755 mmHg 57%
    04:00 +23°C° 0 mm 2 mps 755 mmHg 62%
    05:00 +22°C° 0 mm 3 mps 755 mmHg 68%
    06:00 +22°C° 0 mm 3 mps 755 mmHg 74%
    07:00 +25°C° 0 mm 3 mps 755 mmHg 66%
    08:00 +27°C° 0 mm 3 mps 755 mmHg 58%
    09:00 +29°C° 0 mm 4 mps 755 mmHg 51%
    10:00 +30°C° 0 mm 4 mps 755 mmHg 48%
    11:00 +32°C° 0 mm 4 mps 755 mmHg 44%
    12:00 +33°C° 0 mm 4 mps 754 mmHg 41%
    13:00 +33°C° 0 mm 4 mps 754 mmHg 42%
    14:00 +33°C° 0 mm 4 mps 753 mmHg 42%
    15:00 +33°C° 0 mm 4 mps 753 mmHg 43%
    16:00 +30°C° 0 mm 4 mps 753 mmHg 47%
    17:00 +29°C° 0 mm 4 mps 752 mmHg 52%
    18:00 +28°C° 0 mm 4 mps 752 mmHg 56%
    19:00 +27°C° 0 mm 4 mps 753 mmHg 61%
    20:00 +26°C° 0 mm 4 mps 753 mmHg 67%
    21:00 +25°C° 0 mm 4 mps 754 mmHg 72%
    22:00 +23°C° 0 mm 4 mps 754 mmHg 77%
    23:00 +24°C° 0 mm 3 mps 754 mmHg 81%

    26 August, Monday

    Time Temperature Precipitation Wind Pressure Humidity
    00:00 +22°C° 0 mm 3 mps 754 mmHg 85%
    01:00 +24°C° 0 mm 3 mps 753 mmHg 86%
    02:00 +24°C° 0 mm 3 mps 753 mmHg 87%
    03:00 +24°C° 0 mm 3 mps 752 mmHg 88%
    04:00 +24°C° 0.1 mm 3 mps 752 mmHg 88%
    05:00 +24°C° 0.1 mm 3 mps 753 mmHg 87%
    06:00 +24°C° 0.1 mm 3 mps 753 mmHg 87%
    07:00 +25°C° 0.1 mm 3 mps 753 mmHg 81%
    08:00 +26°C° 0.1 mm 3 mps 753 mmHg 76%
    09:00 +28°C° 0.1 mm 4 mps 753 mmHg 70%
    10:00 +28°C° 0.1 mm 4 mps 753 mmHg 66%
    11:00 +29°C° 0.1 mm 3 mps 753 mmHg 62%
    12:00 +29°C° 0.1 mm 3 mps 753 mmHg 58%
    13:00 +30°C° 0.2 mm 3 mps 753 mmHg 55%
    14:00 +30°C° 0.2 mm 3 mps 752 mmHg 52%
    15:00 +31°C° 0.2 mm 2 mps 752 mmHg 49%
    16:00 +30°C° 0.2 mm 2 mps 752 mmHg 51%
    17:00 +29°C° 0.2 mm 2 mps 752 mmHg 53%
    18:00 +28°C° 0.2 mm 2 mps 752 mmHg 55%
    19:00 +27°C° 0.1 mm 2 mps 753 mmHg 60%
    20:00 +26°C° 0.1 mm 2 mps 754 mmHg 65%
    21:00 +24°C° 0.1 mm 2 mps 754 mmHg 70%
    22:00 +24°C° 0 mm 2 mps 755 mmHg 72%
    23:00 +24°C° 0 mm 2 mps 755 mmHg 74%

    27 August, Tuesday

    Time Temperature Precipitation Wind Pressure Humidity
    00:00 +24°C° 0 mm 2 mps 755 mmHg 76%
    01:00 +24°C° 0 mm 2 mps 754 mmHg 74%
    02:00 +24°C° 0 mm 2 mps 754 mmHg 72%
    03:00 +24°C° 0 mm 2 mps 754 mmHg 71%
    04:00 +23°C° 0 mm 2 mps 754 mmHg 70%
    05:00 +23°C° 0 mm 2 mps 754 mmHg 70%
    06:00 +23°C° 0 mm 2 mps 755 mmHg 69%
    07:00 +25°C° 0 mm 2 mps 755 mmHg 61%
    08:00 +28°C° 0 mm 1 mps 755 mmHg 53%
    09:00 +30°C° 0 mm 1 mps 755 mmHg 45%
    10:00 +31°C° 0 mm 2 mps 755 mmHg 43%
    11:00 +33°C° 0 mm 3 mps 755 mmHg 41%
    12:00 +34°C° 0 mm 3 mps 755 mmHg 39%
    13:00 +34°C° 0 mm 3 mps 755 mmHg 39%
    14:00 +34°C° 0 mm 2 mps 754 mmHg 39%
    15:00 +34°C° 0 mm 2 mps 754 mmHg 39%
    16:00 +32°C° 0 mm 2 mps 754 mmHg 40%
    17:00 +32°C° 0 mm 2 mps 754 mmHg 41%
    18:00 +31°C° 0 mm 2 mps 754 mmHg 42%
    19:00 +29°C° 0 mm 2 mps 754 mmHg 49%
    20:00 +27°C° 0 mm 2 mps 755 mmHg 55%
    21:00 +26°C° 0 mm 2 mps 755 mmHg 61%
    22:00 +25°C° 0 mm 2 mps 755 mmHg 64%
    23:00 +25°C° 0 mm 2 mps 756 mmHg 67%

    28 August, Wednesday

    Time Temperature Precipitation Wind Pressure Humidity
    00:00 +24°C° 0 mm 2 mps 756 mmHg 70%
    01:00 +24°C° 0 mm 2 mps 756 mmHg 71%
    02:00 +24°C° 0 mm 2 mps 755 mmHg 71%
    03:00 +24°C° 0 mm 3 mps 755 mmHg 71%
    04:00 +24°C° 0 mm 3 mps 755 mmHg 71%
    05:00 +24°C° 0 mm 3 mps 755 mmHg 70%
    06:00 +24°C° 0 mm 3 mps 756 mmHg 69%
    07:00 +26°C° 0 mm 3 mps 756 mmHg 59%
    08:00 +29°C° 0 mm 3 mps 756 mmHg 48%
    09:00 +32°C° 0 mm 4 mps 756 mmHg 38%
    10:00 +33°C° 0 mm 4 mps 755 mmHg 38%
    11:00 +33°C° 0 mm 4 mps 755 mmHg 38%
    12:00 +34°C° 0 mm 5 mps 755 mmHg 38%
    13:00 +34°C° 0 mm 5 mps 755 mmHg 38%
    14:00 +34°C° 0 mm 5 mps 755 mmHg 38%
    15:00 +34°C° 0 mm 5 mps 754 mmHg 38%
    16:00 +33°C° 0 mm 4 mps 754 mmHg 40%
    17:00 +33°C° 0 mm 4 mps 754 mmHg 42%
    18:00 +31°C° 0 mm 3 mps 754 mmHg 43%
    19:00 +29°C° 0 mm 3 mps 754 mmHg 51%
    20:00 +27°C° 0 mm 3 mps 755 mmHg 58%
    21:00 +26°C° 0 mm 3 mps 755 mmHg 65%
    22:00 +25°C° 0 mm 3 mps 755 mmHg 67%
    23:00 +25°C° 0 mm 3 mps 756 mmHg 69%
    Show more